[Iaude] MPEC A121: 2001 FB90 = 2023 VM6

mpec at marsden.cfa.harvard.edu mpec at marsden.cfa.harvard.edu
Wed Jan 10 21:38:46 EST 2024


M.P.E.C. 2024-A121                             Issued 2024 January 11, 02:34 UT

     The Minor Planet Electronic Circulars contain information on unusual
         minor planets, routine data on comets and natural satellites,
         and occasional editorial announcements.  They are published
    on behalf of Division F of the International Astronomical Union by the
          Minor Planet Center, Smithsonian Astrophysical Observatory,
                          Cambridge, MA 02138, U.S.A.
			  
             Prepared using the Tamkin Foundation Computer Network

                              MPC at CFA.HARVARD.EDU
            URL https://www.minorplanetcenter.net/    ISSN 1523-6714

                              2001 FB90 = 2023 VM6                              

                           Revision to MPEC 2001-F45

Orbital elements:
2001 FB90 = 2023 VM6                                PHA, Earth MOID = 0.0307 AU
Id. P. VanWylen
Epoch 2023 Sept. 13.0 TT = JDT 2460200.5                Veres                   
M 359.25522              (2000.0)            P               Q                  
n   0.26399497     Peri.   16.23741     +0.18476370     +0.98226869             
a   2.4066094      Node   264.41822     -0.90520123     +0.15749259             
e   0.7654732      Incl.    1.83042     -0.38271806     +0.10170699             
P   3.73           H   20.14          G   0.15           U   1                  
Residuals in seconds of arc
010317 608  1.6-  0.6+    010328 608  0.5+  1.0+    231110 I52  0.1-  0.2+
010321 608  0.1+  1.2+    010328 608  0.2+  1.1+    231110 033  0.0   0.2+
010321 608  0.1-  1.1+    010328 608  0.0   0.8+    231110 033  0.0   0.7+
010321 608  0.1+  1.3+    010328 608  0.7+  1.0+    231110 033  0.2+  0.4+
010322 608  0.0   1.5+    010328 608  1.3+  1.1+    231110 J04  0.1+  0.1+
010322 608  0.1-  1.6+    010328 608  1.5+  0.9+    231110 J04  0.2+  0.3+
010322 608  0.6+  0.8+    010328 608  0.3+  1.4+    231110 J04  0.1+  0.2-
010322 608  0.8+  0.7+    010328 608  1.1+  0.5+    231111 H21  0.1-  0.0
010323 608  0.3+  0.7+    010328 608  0.8+  1.4+    231111 H21  0.2+  0.0
010323 608  0.1+  0.5+    010328 046  2.9-  5.8-    231111 H21  0.1-  0.1-
010323 608  0.5+  0.6+    010328 046  5.2-  7.3-    231111 J04  0.2-  0.0
010324 608  0.8+  1.0+    010328 046  0.0   5.2-    231111 J04  0.1-  0.4+
010324 608  0.2+  1.0+    231109 G96  0.7+  0.2-    231111 J04  0.2-  0.1+
010324 608  0.2+  0.9+    231109 G96  0.3+  0.0     231112 T12  0.2-  0.0
010326 608  0.4+  0.8+    231109 G96  0.4-  0.2-    231113 291  0.2-  0.2-
010326 608  0.4+  0.7+    231109 I52  0.2+  0.2+    231113 291  0.1-  0.1+
010326 608  0.3+  0.9+    231109 I52  0.0   0.1-    231115 691  0.2+  0.0
010327 608  0.5+  0.9+    231109 I52  0.2+  0.1-    231115 691  0.5+  0.8+
010327 608  0.2+  1.1+    231109 I52  0.0   0.4+    231115 691  0.4-  0.2-
010327 608  0.2+  1.4+    231109 H01  0.1+  0.1-    231123 I52  0.3-  0.1+
010327 608  0.2-  0.8+    231109 H01  0.0   0.0     231123 I52  0.1-  0.2+
010327 608  0.2-  1.2+    231109 H01  0.1+  0.0     231123 I52  0.7+  0.7-
010327 608  0.3-  0.9+    231109 H01  0.1+  0.1-    231207 291  0.1-  0.5+
010328 608  0.2+  0.8+    231110 I52  0.2-  0.6+    231207 291  0.2-  0.0
010328 608  0.7+  0.6+    231110 I52  0.0   0.3+

Ephemeris:
2001 FB90                a,e,i = 2.41, 0.77, 2                   q = 0.5644
Date    TT    R. A. (2000) Decl.     Delta      r    Elong.  Phase     V
2023 12 12    23 50 34.0 +01 08 24   1.0282  1.5301    98.9    39.5    22.7
...
2023 12 27    00 27 40.3 +04 39 57   1.3283  1.7013    93.6    35.2    23.4
...
2024 01 04    00 44 28.6 +06 15 30   1.4959  1.7887    89.9    33.3    23.7
...
2024 01 10    00 56 13.9 +07 21 49   1.6240  1.8525    86.9    32.0    23.9
2024 01 11    00 58 08.2 +07 32 30   1.6455  1.8630    86.4    31.8    23.9
2024 01 12    01 00 01.5 +07 43 06   1.6670  1.8735    85.9    31.6    24.0
...
2024 01 18    01 11 05.9 +08 44 44   1.7967  1.9354    82.7    30.3    24.2
...
2024 01 26    01 25 16.6 +10 02 22   1.9705  2.0158    78.3    28.6    24.4
...
2024 02 10    01 50 36.3 +12 16 12   2.2953  2.1603    69.7    25.4    24.8

M. P. C. Staff               (C) Copyright 2024 MPC           M.P.E.C. 2024-A121





More information about the Iaude mailing list